Lid_Strength_Index
6 6 6 6 5 5 5 5 5 4 4 5 5 5 5 6 6 6 4 3 5 6 6 6 6 7 7 7 6 5 4 6
6 6 6 6 6 5 5 6 4 4 4 5 5 5 6 6 6 5 4 5 4 6 6 6 7 8 8 8 7 7 6 7
6 6 6 6 6 5 5 5 5 4 4 5 4 5 5 5 6 4 5 4 4 6 6 6 8 8 8 9 9 8 8 6
6 6 6 6 6 5 5 5 5 4 4 5 4 4 3 5 5 5 5 3 4 5 6 6 7 7 7 6 7 9 8 6
6 6 6 6 6 5 5 5 5 4 4 4 4 4 4 5 6 5 5 4 5 5 6 6 7 8 7 7 6 9 7 7
5 5 5 5 5 5 5 5 4 4 5 4 3 4 5 6 6 6 6 6 6 6 7 6 6 6 6 7 7 9 8 7
5 5 5 5 5 4 5 5 4 4 4 3 4 5 6 6 6 6 6 6 7 6 6 6 6 6 6 7 7 8 8 7
5 5 5 5 5 5 5 5 4 5 4 3 5 6 6 6 6 6 6 6 6 5 5 5 5 5 5 6 7 8 8 8
4 5 5 5 5 5 5 4 5 4 2 4 5 6 6 6 6 6 6 6 6 5 4 4 3 4 5 6 7 8 8 7
5 5 5 5 3 4 4 5 4 3 3 5 5 5 5 4 5 5 5 5 4 3 4 3 3 4 4 6 7 7 6 7
5 5 6 4 3 4 4 5 4 4 4 6 5 5 4 4 5 5 5 4 4 4 4 6 7 6 6 6 7 7 6 7
5 5 6 5 4 3 4 3 3 3 5 5 5 4 5 5 4 5 5 4 4 5 6 7 8 7 7 7 7 7 5 6
4 5 6 6 5 4 3 3 2 4 5 5 4 4 5 6 5 6 4 3 4 5 6 7 8 8 8 9 9 9 8 8
4 5 6 6 5 5 4 2 3 4 5 5 4 4 5 5 4 4 4 5 5 6 8 7 7 7 9 9 8 8 8 8
4 5 5 5 5 4 3 2 4 4 5 4 3 6 6 6 5 5 5 4 6 8 9 9 8 8 9 9 8 8 8 7
4 4 4 5 4 4 2 3 4 3 5 6 6 6 6 6 5 4 5 5 6 7 8 8 8 9 9 8 8 6 6 6
4 4 4 4 3 3 3 3 4 4 4 5 5 5 5 5 4 4 4 4 6 7 8 7 7 9 8 8 6 6 6 7
5 5 4 4 3 4 3 3 4 4 4 5 6 7 6 6 4 4 5 6 6 6 7 8 8 6 6 6 5 6 7 7
3 4 4 3 4 3 2 3 4 4 4 4 5 6 6 5 3 4 6 7 8 7 8 10 11 6 7 7 7 7 7 7
3 4 4 3 3 2 3 3 4 4 4 4 4 6 5 4 5 7 7 8 7 8 8 9 10 6 6 7 6 6 6 6